Location: Valasske Mezirici
(49.4670°N, 17.9670°E)
Time: 17:25:44
(UTC+02:00)

ISS - Visible Passes

Search period start: 19 September 2018 00:00
Search period end: 29 September 2018 00:00
Orbit: 402 x 408 km, 51.6° (Epoch: 20 September)

Date Brightness Start Highest point End Pass type
(mag) Time Alt. Az. Time Alt. Az. Time Alt. Az.
22 Sep -2.1 20:26:58 10° SSW 20:28:33 20° S 20:28:33 20° S visible
23 Sep -2.0 19:35:47 10° S 19:37:58 17° SE 19:39:12 14° ESE visible
23 Sep -1.6 21:10:45 10° WSW 21:11:53 20° WSW 21:11:53 20° WSW visible
24 Sep -3.6 20:18:53 10° SW 20:22:04 48° SSE 20:22:19 46° SE visible
25 Sep -2.8 19:27:11 10° SSW 19:30:09 31° SSE 19:32:36 13° E visible
25 Sep -2.4 21:03:10 10° WSW 21:05:16 36° W 21:05:16 36° W visible
26 Sep -3.9 20:11:07 10° WSW 20:14:24 82° SSE 20:15:25 42° ENE visible
26 Sep -0.5 21:47:48 10° W 21:48:06 12° W 21:48:06 12° W visible
27 Sep -3.6 19:19:09 10° SW 19:22:23 56° SSE 19:25:28 11° ENE visible
27 Sep -2.7 20:55:39 10° W 20:58:08 43° WNW 20:58:08 43° WNW visible
28 Sep -3.7 20:03:30 10° W 20:06:48 70° NNW 20:08:07 33° ENE visible
28 Sep -0.6 21:40:14 10° WNW 21:40:46 14° WNW 21:40:46 14° WNW visible
